Flag for Germany Weather past 2 weeks in Neuburg an der Donau, Bavaria, Germany

Now
61 °F

Cool.


Feels Like: 61 °F
Forecast: 58 / 72 °F
Wind: 2 mph from Northwest

Location: Neuburg / Donau

Current Time: Sep 20, 2014 at 12:42:12 AM

Latest Report: Sep 19, 2014 at 11:20 PM


Visibility: N/A

Pressure: 30.01 "Hg

Humidity: 94%

Dew point: 59 °F

Location of Neuburg an der DonauLocation

Historic Weather in Neuburg an der Donau — Graph

°F

Neuburg an der Donau temperature yesterday

Maximum temperature yesterday: 75 °F (at 3:20 PM)
Minimum temperature yesterday: 54 °F (at 5:20 AM)
Average temperature yesterday: 63 °F

Past Weeks' High & Low Weather Summary

 TemperatureHumidityPressure
High79 °F (Sep 7, 3:20 PM)100% (Sep 5, 4:20 AM)30.12 "Hg (Sep 5, 4:20 AM)
Low46 °F (Sep 17, 5:20 AM)48% (Sep 7, 5:20 PM)29.89 "Hg (Sep 6, 4:20 PM)
Average60 °F86%30.00 "Hg
* Reported Sep 4 11:20 PM — Sep 19 11:20 PM, Neuburg an der Donau, Weather by CustomWeather, © 2014

Note: Actual official high and low records may vary slightly from our data, if they occured in-between our weather recording intervals... More about our weather records

Advertising

Neuburg an der Donau weather history for previous 24 hours

 ConditionsComfort  
Time TempWeatherWind HumidityBarometerVisibility
11:20 PM
Sep 19
61 °FCool.2 mph94%30.01 "HgN/A
10:20 PM63 °FMild.1 mph83%30.01 "HgN/A
9:20 PM63 °FMild.3 mph83%29.98 "HgN/A
8:20 PM66 °FMild.No wind68%29.98 "HgN/A
7:20 PM70 °FMild.7 mph64%29.98 "HgN/A
6:20 PM73 °FMild.3 mph65%29.95 "HgN/A
5:20 PM75 °FMild.1 mph57%29.95 "HgN/A
4:20 PM75 °FMild.3 mph57%29.95 "HgN/A
3:20 PM75 °FMild.2 mph61%29.95 "HgN/A
2:20 PM73 °FMild.1 mph65%29.98 "HgN/A
1:20 PM72 °FPartly sunny.3 mph69%29.98 "HgN/A
11:20 AM66 °FScattered clouds.2 mph88%29.98 "HgN/A
10:20 AM61 °FPartly sunny.3 mph100%30.01 "Hg6 mi
10:01 AM59 °FFog.3 mph100%30.01 "Hg3 mi
8:48 AM57 °FFog.1 mph94%29.98 "Hg1 mi
8:20 AM55 °FFog.No wind100%29.98 "Hg0 mi
7:20 AM55 °FFog.No wind100%29.98 "Hg0 mi
6:20 AM55 °FFog.1 mph100%29.95 "Hg0 mi
5:20 AM54 °FCool.No wind100%29.95 "HgN/A
4:20 AM55 °FCool.No wind94%29.95 "HgN/A
3:20 AM55 °FCool.3 mph100%29.95 "HgN/A
2:20 AM59 °FCool.1 mph94%29.95 "HgN/A
1:20 AM61 °FCool.3 mph94%29.95 "HgN/A
12:20 AM63 °FMild.No wind88%29.95 "HgN/A
Weather by CustomWeather, © 2014

See weather overviewHow to use our weather pages